sat.trackr.live / text

‹ back to catalog

STARLINK-34368

NORAD 64311 · 2025-123W

PAYLOAD ACTIVE UNKNOWN

§ Identity

Operator
Country
US
Launch date
2025-06-08
Launch site
AFWTR
Launch vehicle
Mass (kg)
RCS (m²)

Purposes: comms

External: N2YO · Heavens-Above · Gunter

§ Orbital elements

Epoch: 2026-09-20T13:07:09.454080Z

Period
94.14 min
Inclination
70.0017°
Eccentricity
0.0003119
Mean motion
15.29607364 rev/d
Perigee alt
474.8 km
Apogee alt
479.1 km
Semi-major
6,855.1 km
B*
8.1215e-4
RAAN
60.8583°
Arg perigee
271.2741°
Mean anomaly
88.8076°
Rev number
7,086

§ Raw data

STARLINK-343681 64311U 25123W   26263.54663720  .00023311  00000+0  81215-3 0  99992 64311  70.0017  60.8583 0003119 271.2741  88.8076 15.29607364 70861

JSON: /api/v1/satellites/64311 · /tle

For live sub-satellite position, see the globe view (requires WebGL).

§ Visibility from observer

Set your observer location to see the next 7 days of passes ≥ 10°. The values pass through the URL so the page stays shareable.

No JS? Fill the form by hand. The geolocation button needs JavaScript.